Tracking 27428 objects as of 31-May-2023
HD Live streaming from Space Station
objects crossing your sky now

OPS 9316 (IDSCS 6)

Track OPS 9316 (IDSCS 6) now!
OPS 9316 (IDSCS 6) is classified as:


NORAD ID: 2220
Int'l Code: 1966-053G
Perigee: 33,721.7 km
Apogee: 34,214.1 km
Inclination: 6.3 °
Period: 1,343.8 minutes
Semi major axis: 40338 km
RCS: 0.0794 m2 (small)
Launch date: June 16, 1966
Source: United States (US)
Launch site: AIR FORCE EASTERN TEST RANGE (AFETR)
Your satellite tracking list
Your tracking list is empty




NASA's NSSDC Master Catalog

Two Line Element Set (TLE):
1  2220U 66053G   23150.94029277 -.00000043  00000-0  00000+0 0  9994
2  2220   6.3170  55.2120 0061041 148.7466   7.6660  1.07156130127108
Source of the keplerian elements: AFSPC